Weather History for Sexton Summit, OR

Change the Weather History Date:

Saturday, January 19, 2013

  Actual Average Record
Temperature  
Mean Temperature 46 °F -  
Max Temperature 52 °F 39 °F 57 °F (2005)
Min Temperature 39 °F 31 °F 26 °F (2002)
Degree Days  
Heating Degree Days 20    
Moisture  
Dew Point 11 °F    
Average Humidity 25    
Maximum Humidity 38    
Minimum Humidity 16    
Precipitation  
Precipitation 0.00 in - - ()
Sea Level Pressure  
Sea Level Pressure 30.24 in    
Wind  
Wind Speed 14 mph (ESE)    
Max Wind Speed 20 mph    
Max Gust Speed 29 mph    
Visibility 10 miles    
Events      
Averages and records for this station are not official NWS values.
T = Trace of Precipitation, MM = Missing Value Source: NWS Daily Summary

Daily Weather History Graph

Daily Weather History Graph

Search for Another Location

Airport:

Trip Planner

Search our weather history database for the weather conditions in past years. The results will help you decide how hot, cold, wet, or windy it might be!

Date:

Astronomy

Jan. 19, 2013 Rise Set
Actual Time 7:38 AM PST 5:10 PM PST
Civil Twilight 7:07 AM PST 5:41 PM PST
Nautical Twilight 6:32 AM PST 6:16 PM PST
Astronomical Twilight 5:59 AM PST 6:49 PM PST
Moon 11:41 AM PST (1/19) 1:16 AM PST (1/19)
Length of Visible Light 10h 34m
Length of Day
9h 32m
First Quarter, 58% of the Moon is Illuminated
Jan 19
First Quarter
Jan 26
Full
Feb 3
Last Quarter
Feb 9
New
Feb 17
First Quarter

Hourly Weather History & Observations

Time (PST) Temp. Windchill Dew Point Humidity Pressure Visibility Wind Dir Wind Speed Gust Speed Precip Events Conditions
12:56 AM 42.1 °F 34.2 °F 12.9 °F 31% 30.21 in 10.0 mi ESE 16.1 mph 26.5 mph N/A   Clear
1:56 AM 41.0 °F 34.3 °F 14.0 °F 33% 30.22 in 10.0 mi ESE 11.5 mph 20.7 mph N/A   Clear
2:56 AM 39.0 °F 31.4 °F 15.1 °F 38% 30.23 in 10.0 mi ESE 12.7 mph 23.0 mph N/A   Clear
3:56 AM 39.9 °F 31.4 °F 12.9 °F 33% 30.22 in 10.0 mi ESE 16.1 mph 25.3 mph N/A   Clear
4:56 AM 39.9 °F 30.8 °F 12.0 °F 32% 30.22 in 10.0 mi ESE 18.4 mph 26.5 mph N/A   Clear
5:56 AM 42.1 °F 33.6 °F 10.0 °F 27% 30.22 in 10.0 mi ESE 18.4 mph 27.6 mph N/A   Clear
6:56 AM 41.0 °F 31.9 °F 10.0 °F 28% 30.23 in 10.0 mi ESE 19.6 mph 26.5 mph N/A   Clear
7:56 AM 41.0 °F 32.2 °F 10.9 °F 29% 30.23 in 10.0 mi ESE 18.4 mph 28.8 mph N/A   Clear
8:56 AM 44.1 °F 36.2 °F 10.9 °F 26% 30.24 in 10.0 mi ESE 18.4 mph 27.6 mph N/A   Clear
9:56 AM 45.0 °F 37.4 °F 12.0 °F 26% 30.27 in 10.0 mi ESE 18.4 mph 26.5 mph N/A   Clear
10:56 AM 48.0 °F - 12.0 °F 24% 30.26 in 10.0 mi ESE 17.3 mph - N/A   Clear
11:56 AM 48.0 °F - 10.9 °F 22% 30.25 in 10.0 mi ESE 17.3 mph 21.9 mph N/A   Clear
12:56 PM 50.0 °F - 10.0 °F 20% 30.25 in 10.0 mi ESE 11.5 mph 19.6 mph N/A   Clear
1:56 PM 51.1 °F - 9.0 °F 18% 30.23 in 10.0 mi SE 11.5 mph - N/A   Clear
2:56 PM 52.0 °F - 8.1 °F 17% 30.23 in 10.0 mi ESE 9.2 mph - N/A   Clear
3:56 PM 52.0 °F - 7.0 °F 16% 30.23 in 10.0 mi ESE 6.9 mph - N/A   Clear
4:56 PM 50.0 °F - 6.1 °F 17% 30.24 in 10.0 mi ESE 6.9 mph - N/A   Clear
5:56 PM 48.9 °F - 7.0 °F 18% 30.24 in 10.0 mi ESE 9.2 mph - N/A   Clear
6:56 PM 48.0 °F - 9.0 °F 21% 30.25 in 10.0 mi ESE 6.9 mph - N/A   Clear
7:56 PM 46.9 °F - 10.9 °F 23% 30.26 in 10.0 mi ESE 9.2 mph - N/A   Clear
8:56 PM 45.0 °F 39.7 °F 10.9 °F 25% 30.25 in 10.0 mi ESE 10.4 mph - N/A   Clear
9:56 PM 45.0 °F 39.3 °F 10.9 °F 25% 30.26 in 10.0 mi ESE 11.5 mph - N/A   Clear
10:56 PM 45.0 °F 37.9 °F 10.9 °F 25% 30.25 in 10.0 mi ESE 16.1 mph - N/A   Clear
11:56 PM 44.1 °F 36.8 °F 10.9 °F 26% 30.26 in 10.0 mi ESE 16.1 mph - N/A   Clear